�������l�o���
Date,Time,MP-1(��Sv/h),MP-2(��Sv/h),MP-3(��Sv/h),MP-4(��Sv/h),MP-5(��Sv/h),MP-6(��Sv/h),MP-7(��Sv/h),MP-8(��Sv/h),����,����(m/s),���J
2023/03/27,00:00,0.539,0.775,0.478,0.976,0.674,0.315,0.563,0.540,�k��,5.6,�L
2023/03/27,00:10,0.540,0.775,0.476,0.975,0.671,0.315,0.563,0.538,�k��,6.5,��
2023/03/27,00:20,0.540,0.775,0.475,0.975,0.675,0.314,0.562,0.537,�k��,6.3,�L
2023/03/27,00:30,0.540,0.774,0.477,0.975,0.673,0.316,0.564,0.537,�k��,5.3,��
2023/03/27,00:40,0.539,0.774,0.475,0.974,0.672,0.315,0.565,0.539,�k��,6.8,��
2023/03/27,00:50,0.537,0.775,0.479,0.978,0.673,0.316,0.565,0.537,���k��,7.3,��
2023/03/27,01:00,0.539,0.774,0.477,0.975,0.674,0.317,0.564,0.538,�k��,6.1,��
2023/03/27,01:10,0.537,0.774,0.476,0.976,0.674,0.315,0.565,0.540,�k�k��,5.0,�L
2023/03/27,01:20,0.538,0.774,0.475,0.977,0.673,0.315,0.563,0.539,�k�k��,3.5,�L
2023/03/27,01:30,0.538,0.774,0.477,0.976,0.673,0.314,0.565,0.539,�k�k��,5.0,�L
2023/03/27,01:40,0.537,0.777,0.476,0.975,0.675,0.315,0.565,0.539,�k�k��,3.6,��
2023/03/27,01:50,0.538,0.776,0.477,0.977,0.674,0.315,0.565,0.539,�k�k��,5.9,��
2023/03/27,02:00,0.537,0.775,0.475,0.978,0.674,0.315,0.565,0.540,�k�k��,5.5,��
2023/03/27,02:10,0.538,0.774,0.476,0.977,0.674,0.314,0.564,0.538,�k�k��,4.5,��
2023/03/27,02:20,0.537,0.777,0.477,0.978,0.674,0.315,0.563,0.539,�k��,6.9,��
2023/03/27,02:30,0.537,0.775,0.476,0.977,0.676,0.316,0.566,0.538,�k��,7.3,��
2023/03/27,02:40,0.536,0.774,0.475,0.978,0.676,0.315,0.565,0.538,�k��,8.1,��
2023/03/27,02:50,0.538,0.774,0.477,0.976,0.674,0.313,0.566,0.538,�k��,8.0,��
2023/03/27,03:00,0.537,0.775,0.475,0.978,0.676,0.315,0.564,0.539,�k��,8.1,��
2023/03/27,03:10,0.538,0.776,0.476,0.977,0.678,0.315,0.565,0.538,�k��,7.5,��
2023/03/27,03:20,0.539,0.776,0.476,0.977,0.676,0.314,0.565,0.537,�k�k��,7.8,��
2023/03/27,03:30,0.537,0.776,0.474,0.978,0.677,0.316,0.564,0.538,�k�k��,8.4,��
2023/03/27,03:40,0.538,0.776,0.476,0.979,0.677,0.315,0.566,0.538,�k��,8.9,��
2023/03/27,03:50,0.539,0.777,0.476,0.979,0.675,0.314,0.567,0.538,�k��,7.8,��
2023/03/27,04:00,0.538,0.777,0.476,0.977,0.677,0.314,0.566,0.537,�k��,5.1,��
2023/03/27,04:10,0.538,0.776,0.477,0.979,0.677,0.316,0.565,0.538,�k��,5.4,��
2023/03/27,04:20,0.538,0.778,0.477,0.978,0.678,0.313,0.567,0.538,�k��,6.8,��
2023/03/27,04:30,0.539,0.777,0.474,0.978,0.677,0.315,0.564,0.537,�k��,7.2,��
2023/03/27,04:40,0.538,0.778,0.475,0.981,0.678,0.315,0.568,0.538,�k��,8.2,��
2023/03/27,04:50,0.538,0.779,0.474,0.980,0.679,0.314,0.567,0.537,�k��,6.3,��
2023/03/27,05:00,0.539,0.776,0.478,0.980,0.679,0.315,0.566,0.538,�k��,5.9,��
2023/03/27,05:10,0.538,0.778,0.477,0.979,0.678,0.315,0.566,0.538,�k��,6.6,��
2023/03/27,05:20,0.537,0.779,0.476,0.981,0.677,0.314,0.565,0.540,�k��,6.7,��
2023/03/27,05:30,0.537,0.779,0.477,0.979,0.677,0.315,0.567,0.537,�k��,6.9,��
2023/03/27,05:40,0.540,0.777,0.477,0.979,0.677,0.314,0.565,0.538,�k��,7.5,��
2023/03/27,05:50,0.538,0.778,0.476,0.979,0.678,0.314,0.567,0.538,�k��,6.5,��
2023/03/27,06:00,0.539,0.779,0.475,0.980,0.676,0.316,0.568,0.538,�k��,7.0,��
2023/03/27,06:10,0.538,0.778,0.476,0.982,0.680,0.316,0.566,0.539,�k��,6.1,��
2023/03/27,06:20,0.539,0.780,0.476,0.980,0.678,0.315,0.566,0.537,�k��,6.6,��
2023/03/27,06:30,0.540,0.777,0.478,0.981,0.679,0.315,0.567,0.538,�k��,5.3,��
2023/03/27,06:40,0.539,0.780,0.476,0.982,0.678,0.315,0.567,0.539,�k��,5.2,��
2023/03/27,06:50,0.540,0.780,0.478,0.982,0.679,0.314,0.566,0.538,�k�k��,6.0,��
2023/03/27,07:00,0.539,0.778,0.476,0.981,0.679,0.314,0.566,0.539,�k�k��,6.0,��
2023/03/27,07:10,0.538,0.779,0.475,0.979,0.678,0.315,0.567,0.538,�k�k��,5.0,��
2023/03/27,07:20,0.539,0.781,0.478,0.981,0.678,0.315,0.567,0.538,�k�k��,7.1,��
2023/03/27,07:30,0.539,0.780,0.477,0.982,0.679,0.315,0.568,0.538,�k�k��,6.0,��
2023/03/27,07:40,0.540,0.782,0.477,0.982,0.679,0.316,0.567,0.538,�k�k��,6.2,��
2023/03/27,07:50,0.540,0.783,0.478,0.981,0.679,0.316,0.568,0.537,�k�k��,6.9,��
2023/03/27,08:00,0.541,0.781,0.477,0.982,0.680,0.316,0.569,0.539,�k��,8.2,��
2023/03/27,08:10,0.542,0.782,0.477,0.983,0.680,0.316,0.567,0.538,�k��,7.7,��
2023/03/27,08:20,0.541,0.783,0.477,0.983,0.680,0.315,0.566,0.539,�k�k��,5.7,��
2023/03/27,08:30,0.540,0.782,0.478,0.983,0.681,0.314,0.566,0.539,�k�k��,6.7,��
2023/03/27,08:40,0.541,0.781,0.478,0.983,0.682,0.314,0.567,0.538,�k��,5.1,��
2023/03/27,08:50,0.539,0.782,0.479,0.985,0.683,0.316,0.566,0.540,�k�k��,3.3,��
2023/03/27,09:00,0.542,0.781,0.479,0.985,0.684,0.315,0.566,0.538,�k�k��,5.2,��
2023/03/27,09:10,0.542,0.783,0.480,0.985,0.684,0.316,0.566,0.536,�k�k��,4.1,��
2023/03/27,09:20,0.542,0.781,0.480,0.984,0.685,0.317,0.567,0.537,�k�k��,4.6,��
2023/03/27,09:30,0.543,0.782,0.479,0.985,0.684,0.314,0.567,0.538,�k�k��,5.0,��
2023/03/27,09:40,0.543,0.782,0.481,0.985,0.683,0.314,0.567,0.538,�k�k��,4.4,��
2023/03/27,09:50,0.543,0.786,0.481,0.984,0.686,0.316,0.566,0.536,�k��,2.9,��
2023/03/27,10:00,0.543,0.784,0.481,0.986,0.684,0.315,0.567,0.536,�k�k��,3.7,��
2023/03/27,10:10,0.542,0.784,0.483,0.985,0.684,0.316,0.567,0.538,�k�k��,4.3,��
2023/03/27,10:20,0.542,0.783,0.480,0.986,0.687,0.316,0.566,0.537,�k��,4.5,��
2023/03/27,10:30,0.544,0.785,0.481,0.985,0.686,0.315,0.567,0.538,�k��,5.3,��
2023/03/27,10:40,0.544,0.784,0.482,0.985,0.687,0.314,0.568,0.536,�k��,3.5,��
2023/03/27,10:50,0.543,0.784,0.481,0.986,0.686,0.314,0.566,0.537,���k��,4.1,��
2023/03/27,11:00,0.544,0.785,0.481,0.988,0.686,0.315,0.566,0.538,��,3.2,��
2023/03/27,11:10,0.544,0.787,0.482,0.990,0.685,0.315,0.567,0.538,���쐼,3.8,��
2023/03/27,11:20,0.544,0.788,0.482,0.988,0.684,0.315,0.568,0.539,���쐼,4.8,��
2023/03/27,11:30,0.543,0.787,0.481,0.989,0.687,0.314,0.567,0.538,���쐼,4.7,��
2023/03/27,11:40,0.546,0.788,0.483,0.990,0.687,0.317,0.568,0.537,���쐼,4.0,��
2023/03/27,11:50,0.543,0.789,0.482,0.992,0.685,0.315,0.566,0.536,���쐼,3.1,��
2023/03/27,12:00,0.542,0.787,0.481,0.987,0.686,0.316,0.568,0.539,�쐼,4.1,��
2023/03/27,12:10,0.543,0.789,0.482,0.988,0.686,0.316,0.567,0.537,��,2.5,��
2023/03/27,12:20,0.542,0.787,0.482,0.990,0.687,0.315,0.568,0.538,���쐼,4.3,��
2023/03/27,12:30,0.545,0.787,0.482,0.991,0.690,0.316,0.569,0.540,���쐼,3.5,��
2023/03/27,12:40,0.545,0.790,0.484,0.988,0.689,0.315,0.568,0.539,���쐼,2.6,��
2023/03/27,12:50,0.543,0.790,0.483,0.989,0.689,0.315,0.567,0.540,���쐼,3.6,��
2023/03/27,13:00,0.546,0.788,0.482,0.989,0.689,0.315,0.569,0.539,��쐼,4.5,��
2023/03/27,13:10,0.545,0.790,0.482,0.989,0.689,0.317,0.569,0.540,��,3.5,��
2023/03/27,13:20,0.543,0.791,0.485,0.989,0.691,0.315,0.568,0.541,��,1.5,��
2023/03/27,13:30,0.546,0.790,0.483,0.991,0.689,0.316,0.567,0.541,��,2.0,��
2023/03/27,13:40,0.546,0.791,0.483,0.991,0.691,0.316,0.569,0.540,�쐼,3.0,��
2023/03/27,13:50,0.548,0.790,0.483,0.991,0.690,0.317,0.569,0.540,���쐼,2.9,��
2023/03/27,14:00,0.545,0.790,0.481,0.990,0.691,0.316,0.569,0.541,�쐼,4.5,��
2023/03/27,14:10,0.545,0.793,0.484,0.994,0.690,0.315,0.569,0.540,�k,2.6,��
2023/03/27,14:20,0.545,0.793,0.482,0.990,0.690,0.317,0.569,0.539,�k�k��,3.7,��
2023/03/27,14:30,0.544,0.794,0.483,0.993,0.690,0.316,0.568,0.539,���k��,2.3,��
2023/03/27,14:40,0.544,0.789,0.481,0.992,0.691,0.316,0.569,0.541,���k��,2.5,��
2023/03/27,14:50,0.544,0.792,0.482,0.992,0.691,0.315,0.568,0.541,���쓌,1.5,��
2023/03/27,15:00,0.546,0.791,0.483,0.992,0.691,0.316,0.567,0.540,�쓌,3.2,��
2023/03/27,15:10,0.545,0.793,0.483,0.994,0.690,0.315,0.570,0.539,�쓌,5.4,��
2023/03/27,15:20,0.545,0.793,0.485,0.992,0.692,0.315,0.569,0.540,��,2.6,��
2023/03/27,15:30,0.545,0.791,0.484,0.993,0.692,0.316,0.568,0.540,��쓌,4.2,��
2023/03/27,15:40,0.547,0.794,0.485,0.992,0.691,0.315,0.568,0.539,��쓌,5.6,��
2023/03/27,15:50,0.546,0.792,0.484,0.995,0.691,0.317,0.568,0.539,��쓌,5.4,��
2023/03/27,16:00,0.546,0.794,0.485,0.993,0.692,0.317,0.568,0.540,��쓌,4.8,��
2023/03/27,16:10,0.548,0.794,0.485,0.992,0.692,0.316,0.568,0.541,��쓌,4.5,��
2023/03/27,16:20,0.547,0.793,0.486,0.995,0.689,0.317,0.568,0.540,��쓌,4.5,��
2023/03/27,16:30,0.548,0.794,0.486,0.992,0.693,0.317,0.569,0.541,��쓌,4.7,��
2023/03/27,16:40,0.548,0.794,0.485,0.992,0.691,0.319,0.568,0.541,��쓌,3.5,��
2023/03/27,16:50,0.548,0.796,0.487,0.993,0.693,0.317,0.568,0.540,��쓌,3.8,��
2023/03/27,17:00,0.550,0.797,0.486,0.993,0.693,0.317,0.568,0.541,��쓌,3.2,��
2023/03/27,17:10,0.549,0.797,0.486,0.993,0.693,0.318,0.568,0.542,��쓌,3.6,��
2023/03/27,17:20,0.548,0.796,0.486,0.995,0.693,0.318,0.569,0.542,��쓌,3.2,��
2023/03/27,17:30,0.549,0.796,0.486,0.994,0.695,0.318,0.568,0.542,��쓌,2.2,��
2023/03/27,17:40,0.548,0.798,0.485,0.995,0.693,0.318,0.570,0.541,��쓌,2.5,��
2023/03/27,17:50,0.549,0.797,0.486,0.992,0.695,0.317,0.569,0.541,��,3.2,��
2023/03/27,18:00,0.550,0.798,0.485,0.993,0.694,0.319,0.569,0.541,��,1.7,��
2023/03/27,18:10,0.548,0.797,0.486,0.997,0.695,0.317,0.569,0.541,��,2.0,��
2023/03/27,18:20,0.549,0.796,0.484,0.991,0.695,0.317,0.569,0.542,���k��,1.8,��
2023/03/27,18:30,0.549,0.796,0.486,0.992,0.696,0.319,0.570,0.541,��쐼,0.9,��
2023/03/27,18:40,0.550,0.797,0.486,0.993,0.694,0.317,0.569,0.541,��쐼,2.3,��
2023/03/27,18:50,0.546,0.798,0.486,0.992,0.695,0.318,0.569,0.543,�쐼,3.2,��
2023/03/27,19:00,0.548,0.795,0.486,0.994,0.696,0.317,0.569,0.542,���쐼,3.5,��
2023/03/27,19:10,0.547,0.797,0.485,0.994,0.693,0.317,0.570,0.541,���쐼,3.5,��
2023/03/27,19:20,0.548,0.796,0.486,0.993,0.694,0.318,0.568,0.542,���쐼,4.7,��
2023/03/27,19:30,0.547,0.796,0.484,0.993,0.695,0.316,0.568,0.541,��,4.0,��
2023/03/27,19:40,0.547,0.796,0.485,0.993,0.693,0.317,0.569,0.542,�k��,4.4,��
2023/03/27,19:50,0.550,0.797,0.485,0.992,0.693,0.316,0.568,0.541,�k�k��,6.5,��
2023/03/27,20:00,0.547,0.797,0.486,0.996,0.695,0.318,0.569,0.542,�k�k��,5.9,��
2023/03/27,20:10,0.548,0.797,0.486,0.994,0.697,0.318,0.569,0.540,�k�k��,5.9,��
2023/03/27,20:20,0.549,0.797,0.487,0.991,0.694,0.317,0.569,0.540,�k,5.7,��
2023/03/27,20:30,0.548,0.796,0.484,0.994,0.696,0.316,0.571,0.542,�k,4.5,��
2023/03/27,20:40,0.547,0.796,0.485,0.994,0.694,0.316,0.570,0.541,�k�k��,6.1,��
2023/03/27,20:50,0.548,0.795,0.485,0.994,0.694,0.316,0.569,0.540,�k,5.7,��
2023/03/27,21:00,0.546,0.798,0.485,0.992,0.695,0.317,0.571,0.541,�k,5.1,��
2023/03/27,21:10,0.547,0.797,0.485,0.996,0.696,0.317,0.568,0.541,�k,5.6,��
2023/03/27,21:20,0.548,0.797,0.485,0.994,0.695,0.316,0.570,0.541,�k,5.5,��
2023/03/27,21:30,0.546,0.796,0.486,0.996,0.696,0.318,0.571,0.541,�k,4.7,��
2023/03/27,21:40,0.546,0.796,0.485,0.994,0.693,0.317,0.569,0.541,�k,4.5,��
2023/03/27,21:50,0.548,0.795,0.485,0.994,0.695,0.317,0.570,0.542,�k,5.5,��
2023/03/27,22:00,0.546,0.798,0.483,0.993,0.695,0.317,0.569,0.540,�k,6.3,��
2023/03/27,22:10,0.547,0.795,0.485,0.994,0.693,0.317,0.569,0.540,�k,6.4,��
2023/03/27,22:20,0.546,0.797,0.485,0.994,0.695,0.317,0.569,0.540,�k,6.5,��
2023/03/27,22:30,0.548,0.798,0.486,0.995,0.695,0.317,0.570,0.541,�k,6.5,��
2023/03/27,22:40,0.546,0.797,0.485,0.995,0.695,0.317,0.570,0.542,�k�k��,6.7,��
2023/03/27,22:50,0.547,0.795,0.486,0.993,0.695,0.317,0.569,0.541,�k�k��,6.1,��
2023/03/27,23:00,0.548,0.796,0.486,0.994,0.697,0.316,0.569,0.541,�k�k��,5.5,��
2023/03/27,23:10,0.546,0.796,0.486,0.995,0.696,0.316,0.570,0.542,�k,4.6,��
2023/03/27,23:20,0.546,0.797,0.486,0.993,0.695,0.318,0.568,0.540,�k,5.0,��
2023/03/27,23:30,0.546,0.795,0.484,0.996,0.695,0.317,0.570,0.542,�k,4.5,��
2023/03/27,23:40,0.545,0.796,0.486,0.994,0.696,0.317,0.570,0.542,�k,4.9,��
2023/03/27,23:50,0.548,0.796,0.485,0.995,0.696,0.316,0.570,0.542,�k�k��,5.7,��
